[[{"header":{"parameterUnit":"m.s-1","parameterCategory":1,"la1":30.2992,"la2":30.254,"lo1":-89.0895,"lo2":-89.0443,"dy":0.0025,"dx":0.0025,"nx":19,"ny":19,"refTime":"2026-05-21T03:00:00:Z","depth":0,"parameterNumber":2,"parameterNumberName":"U-component_of_WINDS"},"data":[0,0,0,-1.4435,-1.4438,-1.4572,-1.4573,-1.4752,-1.4753,0,0,0,0,0,0,0,0,0,0,0,-1.4397,-1.4398,-1.4435,-1.4438,-1.4572,-1.4573,-1.4751,-1.4753,0,0,0,0,0,0,0,0,0,0,0,-1.4397,-1.4398,-1.44,-1.4439,-1.4572,-1.4573,-1.4751,-1.4648,0,0,0,0,0,0,0,0,0,0,-1.4517,-1.4482,-1.4398,-1.44,-1.444,-1.4572,-1.4573,-1.4643,-1.4654,-1.4693,0,-1.4726,0,-1.4742,-1.4766,-1.4766,0,0,0,-1.4438,-1.4473,-1.4507,-1.44,-1.4441,-1.4572,-1.4512,-1.4649,-1.4662,-1.4709,-1.4728,-1.4735,-1.4745,-1.4767,-1.4768,-1.499,-1.4991,0,0,-1.4431,-1.4423,-1.4498,-1.4516,-1.4492,-1.4507,-1.4516,-1.4657,-1.4679,-1.4729,-1.4739,-1.4748,-1.4768,-1.4769,-1.4989,-1.499,0,0,0,-1.441,-1.4418,-1.4448,-1.4509,-1.4532,-1.4511,-1.4521,-1.4673,-1.4683,-1.4741,-1.475,-1.4769,-1.4771,-1.4988,-1.499,-1.5035,0,0,0,-1.4405,-1.4405,-1.4445,-1.4442,-1.4529,-1.4603,-1.4534,-1.4674,-1.469,-1.4749,-1.4769,-1.4773,-1.4987,-1.4989,-1.5031,-1.5059,0,0,0,-1.4388,-1.4403,-1.4423,-1.4441,-1.4498,-1.4601,-1.462,-1.4677,-1.4696,-1.4766,-1.4773,-1.4986,-1.4988,-1.5028,-1.5053,-1.5117,0,0,0,-1.4368,-1.4461,-1.4424,-1.4532,-1.4497,-1.4627,-1.4619,-1.4717,-1.4783,-1.477,-1.4987,-1.4989,-1.5027,-1.505,-1.5113,-1.517,-1.5192,0,0,-1.4481,-1.4474,-1.4539,-1.4509,-1.4644,-1.4607,-1.4751,-1.4819,-1.4833,-1.4938,-1.4943,-1.5033,-1.5053,-1.5116,-1.5317,-1.5335,0,0,0,-1.4572,-1.4619,-1.4656,-1.4718,-1.4771,-1.4821,-1.4868,-1.4894,-1.4983,-1.4884,-1.5072,-1.5084,-1.5122,-1.515,-1.5165,-1.5199,-1.5001,-1.5001,-1.5001,-1.4722,-1.4735,-1.4844,-1.4874,-1.4935,-1.4983,-1.5035,-1.5079,-1.5074,-1.5119,-1.515,-1.527,-1.5302,-1.5313,-1.5349,-1.518,-1.518,-1.518,-1.518,-1.4891,-1.496,-1.4953,-1.5056,-1.5071,-1.5159,-1.5211,-1.5205,-1.5291,-1.5247,-1.5281,-1.5233,-1.5332,-1.5364,-1.5184,-1.5183,-1.5183,-1.5182,-1.5182,-1.4992,-1.5028,-1.5057,-1.515,-1.5221,-1.5249,-1.5332,-1.5342,-1.5353,-1.5386,-1.5423,-1.5422,-1.5425,-1.5402,-1.5403,-1.5403,-1.5404,-1.5404,-1.5404,-1.5086,-1.5118,-1.5186,-1.5252,-1.5295,-1.5353,-1.5404,-1.5448,-1.5499,-1.55,-1.5501,-1.5494,-1.5338,-1.53,-1.5411,-1.541,-1.5409,-1.5408,-1.5408,-1.5256,-1.522,-1.5324,-1.5367,-1.5448,-1.552,-1.5532,-1.562,-1.5657,-1.5699,-1.5685,-1.5568,-1.5562,-1.555,-1.5519,-1.568,-1.568,-1.568,-1.568,-1.5343,-1.5341,-1.5452,-1.552,-1.5588,-1.5611,-1.5733,-1.5775,-1.5814,-1.5839,-1.5817,-1.5776,-1.5763,-1.5765,-1.5749,-1.572,-1.5928,-1.5928,-1.5929,-1.545,-1.5455,-1.5555,-1.5591,-1.5656,-1.5712,-1.5828,-1.591,-1.5946,-1.5939,-1.5859,-1.5849,-1.5783,-1.576,-1.5752,-1.5726,-1.5673,0,0]},{"header":{"parameterUnit":"m.s-1","parameterCategory":1,"la1":30.2992,"la2":30.254,"lo1":-89.0895,"lo2":-89.0443,"dy":0.0025,"dx":0.0025,"nx":19,"ny":19,"refTime":"2026-05-21T03:00:00:Z","depth":0,"parameterNumber":3,"parameterNumberName":"V-component_of_WINDS"},"data":[0,0,0,2.1381,2.138,2.1334,2.1333,2.1282,2.1281,0,0,0,0,0,0,0,0,0,0,0,2.14,2.14,2.1381,2.138,2.1334,2.1333,2.1282,2.1281,0,0,0,0,0,0,0,0,0,0,0,2.14,2.14,2.14,2.138,2.1334,2.1333,2.1282,2.1314,0,0,0,0,0,0,0,0,0,0,2.1357,2.1381,2.14,2.14,2.138,2.1334,2.1333,2.1315,2.1312,2.1306,0,2.1304,0,2.1292,2.1278,2.1278,0,0,0,2.1375,2.1384,2.1367,2.14,2.1379,2.1334,2.1353,2.1313,2.1309,2.1302,2.1303,2.1301,2.1291,2.1278,2.1278,2.1267,2.1268,0,0,2.1378,2.1394,2.1369,2.1364,2.1374,2.1355,2.1352,2.1311,2.1313,2.1303,2.13,2.129,2.1278,2.1277,2.1267,2.1267,0,0,0,2.1388,2.1396,2.138,2.1367,2.1358,2.1353,2.135,2.1314,2.1308,2.1299,2.129,2.1277,2.1277,2.1267,2.1267,2.1294,0,0,0,2.1389,2.1402,2.1381,2.1391,2.1359,2.1336,2.1355,2.1311,2.1305,2.129,2.1277,2.1277,2.1267,2.1267,2.1293,2.1304,0,0,0,2.1401,2.1404,2.1399,2.1392,2.1373,2.1336,2.1327,2.1309,2.13,2.1278,2.1276,2.1267,2.1267,2.1292,2.1302,2.1308,0,0,0,2.1418,2.1422,2.14,2.1401,2.1374,2.1354,2.1327,2.1311,2.1295,2.1277,2.1267,2.1267,2.1292,2.1301,2.1307,2.1316,2.1322,0,0,2.1432,2.1424,2.1423,2.1402,2.1391,2.1359,2.1351,2.132,2.1301,2.1279,2.1279,2.1294,2.1302,2.1307,2.1345,2.1349,0,0,0,2.1433,2.1433,2.1426,2.1414,2.1392,2.1374,2.1342,2.1331,2.1312,2.1294,2.1296,2.13,2.1303,2.1307,2.131,2.1312,2.127,2.1269,2.1269,2.1476,2.1455,2.1452,2.1426,2.1414,2.1383,2.1371,2.1351,2.1329,2.1331,2.1324,2.135,2.1355,2.1358,2.136,2.1327,2.1327,2.1327,2.1327,2.1496,2.1492,2.1468,2.1457,2.1435,2.1424,2.1395,2.1382,2.1369,2.1352,2.1353,2.1338,2.1363,2.1364,2.1329,2.1329,2.1328,2.1328,2.1328,2.1522,2.1517,2.1505,2.1487,2.1474,2.1447,2.1437,2.1415,2.1395,2.1396,2.1388,2.1387,2.1385,2.1394,2.1394,2.1394,2.1394,2.1394,2.1394,2.1554,2.154,2.1535,2.1515,2.1505,2.149,2.146,2.145,2.1433,2.1418,2.1418,2.1398,2.137,2.1364,2.1395,2.1395,2.1395,2.1395,2.1395,2.1583,2.1574,2.1567,2.1558,2.1532,2.1523,2.1497,2.1478,2.1466,2.1462,2.1443,2.1425,2.1415,2.1412,2.1407,2.1447,2.1447,2.1447,2.1447,2.1606,2.16,2.1589,2.1576,2.1561,2.1537,2.153,2.1508,2.1483,2.1475,2.1466,2.1457,2.1455,2.1446,2.1442,2.1437,2.1484,2.1484,2.1484,2.1623,2.1615,2.1613,2.1591,2.1571,2.1553,2.1547,2.1533,2.1502,2.1485,2.1469,2.1467,2.1453,2.1449,2.1431,2.1426,2.1416,0,0]}]]